BEL7NL LSGG-EBBR

Flight info

Callsign BEL7NL
Flight time 0h 54m
Altitude 32000
Route ARBOS DCT IXILU DCT IBERA N853 DIK Y37 BATTY
Aircraft A320/M-DE3FGHIJ1LORVWY/H

Departure

Time 2026-05-07 17:20
Airport Geneva International Airport (LSGG)

Arrival

Time 2026-05-07 18:14
Airport Brussels Airport (EBBR)
Time Latitude Longitude Altitude Speed Heading
2026-05-07 16:46 46.23054 6.10614 1396 ft 0 kts 136°
2026-05-07 17:10 46.23059 6.10607 1393 ft 2 kts 139°
2026-05-07 17:10 46.23075 6.10590 1406 ft 3 kts 155°
2026-05-07 17:11 46.23094 6.10581 1399 ft 3 kts 178°
2026-05-07 17:11 46.23112 6.10584 1400 ft 3 kts 210°
2026-05-07 17:11 46.23119 6.10590 1400 ft 0 kts 225°
2026-05-07 17:15 46.23114 6.10583 1400 ft 5 kts 225°
2026-05-07 17:15 46.23079 6.10533 1400 ft 7 kts 225°
2026-05-07 17:15 46.23046 6.10483 1396 ft 8 kts 226°
2026-05-07 17:15 46.23010 6.10430 1395 ft 7 kts 225°
2026-05-07 17:16 46.22980 6.10387 1398 ft 7 kts 226°
2026-05-07 17:16 46.22966 6.10297 1393 ft 9 kts 308°
2026-05-07 17:16 46.23017 6.10214 1393 ft 17 kts 315°
2026-05-07 17:16 46.23044 6.10111 1397 ft 8 kts 231°
2026-05-07 17:17 46.22981 6.10020 1400 ft 21 kts 225°
2026-05-07 17:17 46.22879 6.09870 1395 ft 20 kts 226°
2026-05-07 17:17 46.22789 6.09736 1395 ft 17 kts 225°
2026-05-07 17:17 46.22709 6.09619 1395 ft 16 kts 225°
2026-05-07 17:18 46.22637 6.09514 1406 ft 14 kts 225°
2026-05-07 17:18 46.22578 6.09417 1400 ft 14 kts 236°
2026-05-07 17:18 46.22550 6.09259 1408 ft 14 kts 275°
2026-05-07 17:18 46.22603 6.09159 1416 ft 15 kts
2026-05-07 17:19 46.22678 6.09240 1417 ft 15 kts 45°
2026-05-07 17:19 46.22853 6.09499 1417 ft 69 kts 45°
2026-05-07 17:19 46.23340 6.10216 1397 ft 129 kts 45°
2026-05-07 17:19 46.24087 6.11309 1536 ft 161 kts 46°
2026-05-07 17:20 46.24844 6.12422 2279 ft 155 kts 46°
2026-05-07 17:20 46.25599 6.13544 2962 ft 156 kts 44°
2026-05-07 17:20 46.26361 6.14668 3521 ft 157 kts 44°
2026-05-07 17:20 46.27131 6.15798 4084 ft 159 kts 44°
2026-05-07 17:21 46.27913 6.16943 4612 ft 162 kts 44°
2026-05-07 17:21 46.28743 6.18158 4884 ft 182 kts 45°
2026-05-07 17:21 46.29686 6.19544 5112 ft 204 kts 45°
2026-05-07 17:21 46.30738 6.21092 5350 ft 228 kts 45°
2026-05-07 17:22 46.31908 6.22815 5660 ft 252 kts 45°
2026-05-07 17:22 46.32745 6.24049 5959 ft 265 kts 45°
2026-05-07 17:22 46.34060 6.25990 6665 ft 274 kts 46°
2026-05-07 17:22 46.35439 6.27954 7404 ft 281 kts 39°
2026-05-07 17:23 46.37223 6.29133 8096 ft 289 kts
2026-05-07 17:23 46.39244 6.29144 8876 ft 292 kts 356°
2026-05-07 17:23 46.41300 6.29043 9724 ft 297 kts 357°
2026-05-07 17:23 46.43364 6.28972 10345 ft 307 kts 357°
2026-05-07 17:24 46.45591 6.28913 10575 ft 331 kts 358°
2026-05-07 17:24 46.47962 6.28867 11001 ft 346 kts 358°
2026-05-07 17:24 46.50394 6.28829 11694 ft 350 kts 358°
2026-05-07 17:24 46.52844 6.28793 12436 ft 354 kts 358°
2026-05-07 17:25 46.55313 6.28756 13199 ft 356 kts 357°
2026-05-07 17:25 46.57776 6.28717 13944 ft 359 kts 357°
2026-05-07 17:25 46.60287 6.28677 14590 ft 362 kts 357°
2026-05-07 17:25 46.62816 6.28632 15241 ft 365 kts 357°
2026-05-07 17:26 46.65355 6.28378 15876 ft 366 kts 348°
2026-05-07 17:26 46.67794 6.27449 16492 ft 366 kts 337°
2026-05-07 17:26 46.70096 6.25860 17119 ft 366 kts 328°
2026-05-07 17:26 46.72331 6.24030 17763 ft 369 kts 328°
2026-05-07 17:27 46.74586 6.22188 18381 ft 372 kts 328°
2026-05-07 17:27 46.76851 6.20339 18918 ft 374 kts 328°
2026-05-07 17:27 46.79108 6.18497 19465 ft 377 kts 328°
2026-05-07 17:27 46.81413 6.16613 20026 ft 380 kts 328°
2026-05-07 17:28 46.83731 6.14718 20555 ft 383 kts 328°
2026-05-07 17:28 46.86071 6.12804 21090 ft 386 kts 328°
2026-05-07 17:28 46.88427 6.10871 21667 ft 388 kts 328°
2026-05-07 17:28 46.90795 6.08924 22231 ft 390 kts 328°
2026-05-07 17:29 46.93140 6.06993 22763 ft 393 kts 328°
2026-05-07 17:29 46.95545 6.05050 23266 ft 397 kts 331°
2026-05-07 17:29 46.98144 6.03578 23732 ft 403 kts 341°
2026-05-07 17:29 47.00923 6.02810 24145 ft 409 kts 352°
2026-05-07 17:30 47.03791 6.02733 24538 ft 414 kts 358°
2026-05-07 17:30 47.06692 6.02798 24915 ft 417 kts 358°
2026-05-07 17:30 47.09569 6.02855 25296 ft 419 kts 358°
2026-05-07 17:30 47.12498 6.02909 25672 ft 422 kts 358°
2026-05-07 17:31 47.15445 6.02966 26042 ft 424 kts 358°
2026-05-07 17:31 47.18419 6.03028 26408 ft 426 kts 358°
2026-05-07 17:31 47.21380 6.03088 26767 ft 428 kts 357°
2026-05-07 17:31 47.24369 6.03146 27142 ft 431 kts 358°
2026-05-07 17:32 47.27379 6.03203 27491 ft 433 kts 358°
2026-05-07 17:32 47.30367 6.03261 27834 ft 435 kts 358°
2026-05-07 17:32 47.33399 6.03320 28172 ft 437 kts 357°
2026-05-07 17:32 47.36456 6.03379 28509 ft 439 kts 357°
2026-05-07 17:33 47.39521 6.03436 28828 ft 441 kts 357°
2026-05-07 17:33 47.42564 6.03492 29128 ft 443 kts 357°
2026-05-07 17:33 47.45654 6.03555 29446 ft 444 kts 358°
2026-05-07 17:33 47.48749 6.03624 29748 ft 446 kts 358°
2026-05-07 17:34 47.51860 6.03693 30042 ft 448 kts 358°
2026-05-07 17:34 47.54991 6.03763 30284 ft 450 kts 358°
2026-05-07 17:34 47.58140 6.03829 30509 ft 451 kts 357°
2026-05-07 17:34 47.61258 6.03884 30734 ft 453 kts 357°
2026-05-07 17:35 47.64414 6.03940 30962 ft 455 kts 357°
2026-05-07 17:35 47.67587 6.04000 31192 ft 455 kts 358°
2026-05-07 17:35 47.70771 6.04066 31493 ft 454 kts 358°
2026-05-07 17:35 47.73896 6.04135 31786 ft 454 kts 358°
2026-05-07 17:36 47.77062 6.04326 32002 ft 455 kts
2026-05-07 17:36 47.80197 6.04673 32049 ft 446 kts
2026-05-07 17:36 47.86322 6.05600 32056 ft 440 kts
2026-05-07 17:37 47.92367 6.06510 32054 ft 438 kts
2026-05-07 17:37 47.98444 6.07301 32054 ft 438 kts
2026-05-07 17:38 48.04527 6.08056 32052 ft 438 kts
2026-05-07 17:38 48.10568 6.08822 32067 ft 437 kts
2026-05-07 17:39 48.16653 6.09610 32057 ft 437 kts
2026-05-07 17:39 48.22692 6.10402 32054 ft 436 kts
2026-05-07 17:40 48.28710 6.11190 32062 ft 436 kts
2026-05-07 17:40 48.34768 6.11982 32057 ft 435 kts
2026-05-07 17:41 48.40812 6.12776 32051 ft 435 kts
2026-05-07 17:41 48.46813 6.13565 32047 ft 435 kts
2026-05-07 17:42 48.52851 6.14362 32050 ft 435 kts
2026-05-07 17:42 48.58881 6.15160 32049 ft 435 kts
2026-05-07 17:43 48.64889 6.15940 32046 ft 434 kts
2026-05-07 17:43 48.70925 6.16730 32046 ft 435 kts
2026-05-07 17:44 48.76953 6.17517 32045 ft 434 kts 360°
2026-05-07 17:44 48.79949 6.17215 32045 ft 428 kts 345°
2026-05-07 17:44 48.82798 6.15980 32043 ft 426 kts 340°
2026-05-07 17:45 48.88421 6.13293 32045 ft 426 kts 340°
2026-05-07 17:45 48.94061 6.10556 32047 ft 426 kts 340°
2026-05-07 17:46 48.99747 6.07801 32045 ft 427 kts 340°
2026-05-07 17:46 49.05389 6.05081 32042 ft 427 kts 340°
2026-05-07 17:47 49.11056 6.02345 32042 ft 427 kts 340°
2026-05-07 17:47 49.16738 5.99592 32047 ft 427 kts 340°
2026-05-07 17:48 49.22406 5.96843 32044 ft 427 kts 340°
2026-05-07 17:48 49.28046 5.94093 32042 ft 427 kts 340°
2026-05-07 17:49 49.33713 5.91324 32043 ft 427 kts 340°
2026-05-07 17:49 49.39388 5.88542 32054 ft 427 kts 340°
2026-05-07 17:50 49.45012 5.85777 32049 ft 427 kts 340°
2026-05-07 17:50 49.50693 5.82989 32045 ft 427 kts 340°
2026-05-07 17:51 49.56361 5.80193 31853 ft 428 kts 339°
2026-05-07 17:51 49.59191 5.78791 31584 ft 426 kts 340°
2026-05-07 17:51 49.61977 5.77415 31337 ft 425 kts 340°
2026-05-07 17:52 49.64788 5.76029 31083 ft 423 kts 340°
2026-05-07 17:52 49.67590 5.74645 30838 ft 422 kts 340°
2026-05-07 17:52 49.70371 5.73271 30473 ft 417 kts 340°
2026-05-07 17:52 49.73130 5.71901 29896 ft 415 kts 340°
2026-05-07 17:53 49.75865 5.70537 29350 ft 410 kts 340°
2026-05-07 17:53 49.78567 5.69186 28825 ft 406 kts 340°
2026-05-07 17:53 49.81236 5.67852 28294 ft 402 kts 340°
2026-05-07 17:53 49.83888 5.66527 27805 ft 398 kts 340°
2026-05-07 17:54 49.86519 5.65210 27293 ft 394 kts 340°
2026-05-07 17:54 49.89118 5.63908 26803 ft 391 kts 340°
2026-05-07 17:54 49.91667 5.62633 26330 ft 388 kts 340°
2026-05-07 17:54 49.94228 5.61349 25868 ft 385 kts 340°
2026-05-07 17:55 49.96775 5.60069 25403 ft 382 kts 340°
2026-05-07 17:55 49.99307 5.58795 25096 ft 384 kts 340°
2026-05-07 17:55 50.01861 5.57512 25054 ft 386 kts 341°
2026-05-07 17:55 50.04517 5.56819 25061 ft 391 kts 358°
2026-05-07 17:56 50.07243 5.57067 25073 ft 393 kts
2026-05-07 17:56 50.09976 5.57430 25067 ft 394 kts
2026-05-07 17:56 50.12714 5.57803 25070 ft 394 kts
2026-05-07 17:56 50.15442 5.58176 25068 ft 394 kts
2026-05-07 17:57 50.18139 5.58547 25070 ft 394 kts
2026-05-07 17:57 50.19950 5.58796 25069 ft 394 kts
2026-05-07 17:57 50.23601 5.59298 25072 ft 394 kts
2026-05-07 17:57 50.26340 5.59676 25071 ft 394 kts
2026-05-07 17:58 50.29077 5.60053 25079 ft 394 kts
2026-05-07 17:58 50.31808 5.60429 24992 ft 392 kts
2026-05-07 17:58 50.34484 5.60798 24533 ft 390 kts
2026-05-07 17:58 50.37178 5.61167 24071 ft 387 kts
2026-05-07 17:59 50.39855 5.61531 23618 ft 385 kts
2026-05-07 17:59 50.42514 5.61890 23099 ft 382 kts
2026-05-07 17:59 50.45157 5.62246 22599 ft 379 kts
2026-05-07 17:59 50.47778 5.62601 22117 ft 376 kts
2026-05-07 18:00 50.50379 5.62953 21651 ft 374 kts
2026-05-07 18:00 50.52956 5.63305 21181 ft 371 kts
2026-05-07 18:00 50.55523 5.63655 20723 ft 369 kts
2026-05-07 18:00 50.58068 5.64002 20272 ft 366 kts
2026-05-07 18:01 50.60602 5.64347 19835 ft 364 kts
2026-05-07 18:01 50.63110 5.64687 19412 ft 361 kts
2026-05-07 18:01 50.65610 5.65025 18987 ft 359 kts
2026-05-07 18:01 50.68086 5.65360 18574 ft 357 kts
2026-05-07 18:02 50.72894 5.65067 17375 ft 342 kts 339°
2026-05-07 18:02 50.75004 5.63331 16560 ft 335 kts 320°
2026-05-07 18:02 50.76583 5.60744 15802 ft 330 kts 302°
2026-05-07 18:03 50.77592 5.57528 15028 ft 325 kts 289°
2026-05-07 18:03 50.78361 5.54168 14257 ft 323 kts 289°
2026-05-07 18:03 50.79129 5.50837 13491 ft 321 kts 289°
2026-05-07 18:03 50.79889 5.47542 12697 ft 318 kts 289°
2026-05-07 18:04 50.80644 5.44281 11937 ft 314 kts 289°
2026-05-07 18:04 50.81391 5.41051 11184 ft 311 kts 289°
2026-05-07 18:04 50.82127 5.37844 10453 ft 308 kts 289°
2026-05-07 18:04 50.82827 5.34786 10182 ft 290 kts 289°
2026-05-07 18:05 50.83506 5.31826 9650 ft 283 kts 289°
2026-05-07 18:05 50.84170 5.28918 8982 ft 279 kts 289°
2026-05-07 18:05 50.84823 5.26038 8309 ft 277 kts 289°
2026-05-07 18:05 50.85468 5.23175 7645 ft 274 kts 289°
2026-05-07 18:06 50.86104 5.20341 6999 ft 271 kts 289°
2026-05-07 18:06 50.86727 5.17571 6366 ft 269 kts 289°
2026-05-07 18:06 50.87343 5.14790 6108 ft 269 kts 289°
2026-05-07 18:06 50.87957 5.11980 6070 ft 270 kts 289°
2026-05-07 18:07 50.88567 5.09177 5561 ft 269 kts 289°
2026-05-07 18:07 50.89169 5.06377 5120 ft 269 kts 289°
2026-05-07 18:07 50.89768 5.03567 4712 ft 267 kts 289°
2026-05-07 18:07 50.90339 5.00878 4564 ft 247 kts 289°
2026-05-07 18:08 50.90874 4.98363 4324 ft 237 kts 289°
2026-05-07 18:08 50.91397 4.95903 4059 ft 233 kts 289°
2026-05-07 18:08 50.91908 4.93496 3997 ft 233 kts 289°
2026-05-07 18:08 50.92429 4.91046 4002 ft 234 kts 289°
2026-05-07 18:09 50.92949 4.88589 3970 ft 233 kts 289°
2026-05-07 18:09 50.93464 4.86159 3642 ft 233 kts 289°
2026-05-07 18:09 50.93978 4.83738 3384 ft 229 kts 289°
2026-05-07 18:09 50.94308 4.82180 3299 ft 222 kts 289°
2026-05-07 18:10 50.94793 4.79904 3172 ft 213 kts 289°
2026-05-07 18:10 50.95219 4.77706 3075 ft 201 kts 279°
2026-05-07 18:10 50.95191 4.75575 2941 ft 189 kts 256°
2026-05-07 18:10 50.94778 4.73653 2806 ft 178 kts 250°
2026-05-07 18:11 50.94377 4.71891 2716 ft 167 kts 250°
2026-05-07 18:11 50.93990 4.70196 2544 ft 161 kts 250°
2026-05-07 18:11 50.93613 4.68544 2354 ft 157 kts 250°
2026-05-07 18:11 50.93244 4.66933 2144 ft 154 kts 250°
2026-05-07 18:12 50.92883 4.65353 1931 ft 151 kts 250°
2026-05-07 18:12 50.92528 4.63804 1730 ft 148 kts 250°
2026-05-07 18:12 50.92178 4.62278 1530 ft 147 kts 250°
2026-05-07 18:12 50.91832 4.60767 1365 ft 145 kts 250°
2026-05-07 18:13 50.91494 4.59297 1146 ft 143 kts 250°
2026-05-07 18:13 50.91154 4.57816 944 ft 143 kts 250°
2026-05-07 18:13 50.90815 4.56340 744 ft 143 kts 251°
2026-05-07 18:13 50.90475 4.54863 549 ft 143 kts 251°
2026-05-07 18:14 50.90138 4.53387 368 ft 142 kts 251°
2026-05-07 18:14 50.89798 4.51910 182 ft 140 kts 251°
2026-05-07 18:14 50.89505 4.50639 175 ft 99 kts 250°
2026-05-07 18:14 50.89344 4.49941 177 ft 41 kts 250°
2026-05-07 18:15 50.89378 4.49655 172 ft 28 kts 309°
2026-05-07 18:15 50.89476 4.49450 165 ft 24 kts 307°
2026-05-07 18:15 50.89564 4.49265 158 ft 16 kts 309°
2026-05-07 18:15 50.89674 4.49273 151 ft 20 kts 13°
2026-05-07 18:16 50.89827 4.49336 141 ft 26 kts 15°
2026-05-07 18:16 50.90019 4.49414 131 ft 30 kts 13°
2026-05-07 18:16 50.90205 4.49487 128 ft 25 kts 17°
2026-05-07 18:16 50.90367 4.49520 123 ft 22 kts 334°
2026-05-07 18:17 50.90402 4.49323 120 ft 15 kts 246°
2026-05-07 18:17 50.90363 4.49178 123 ft 13 kts 244°
2026-05-07 18:17 50.90360 4.49087 122 ft 8 kts 322°
2026-05-07 18:17 50.90406 4.49052 121 ft 4 kts 335°
2026-05-07 18:18 50.90413 4.49047 117 ft 1 kts 335°
2026-05-07 18:18 50.90414 4.49046 117 ft 0 kts 335°